RESULTADOS DE LA FECHA: Domingo 21 de Noviembre, 2021 C2 | Ver Clase 2 | Ver Clase 3
FINAL C2
Puesto Nro Piloto Marca Vtas Tiempo Dif.
1 9 CHRISTIAN ABDALA TOYOTA ETIOS 20 35:11.551
2 80 JUAN I. CANELA VW TREND 20 35:15.566 4.015
3 35 SERGIO FERNANDEZ NISSAN MARCH 20 35:16.297 4.746
4 199 JUAN I. TORRES CHEVROLET CORSA 20 35:17.090 5.539
5 55 MARCELO GUEVARA NISSAN MARCH 20 35:17.702 6.151
6 89 RENZO BLOTTA TOYOTA ETIOS 20 35:18.115 6.564
7 114 PABLO ORTEGA FIAT ARGO 20 35:19.022 7.471
8 14 IGNACIO PROCACITTO VW TREND 20 35:20.296 8.745
9 86 FACUNDO DELLA MOTTA TOYOTA ETIOS 20 35:20.602 9.051
10 30 VALDERREY ALEJANDRO TOYOTA ETIOS 20 35:25.922 14.371
11 4 LUCAS TEDESCHI TOYOTA ETIOS 20 35:26.096 14.545
12 21 FERNANDO GOMEZ FREDES TOYOTA ETIOS 20 35:26.517 14.966
13 61 FACUNDO BUSTOS VW TREND 20 35:26.855 15.304
14 113 CHRISTIAN BODRATO MIONETT TOYOTA ETIOS 20 35:28.068 16.517
15 79 MARCO VERONESI TOYOTA ETIOS 20 35:29.641 18.090
16 10 ALEJO BORGIANI VW TREND 20 35:32.566 21.015
17 8 SEBASTIAN PEREZ CHEVROLET ONIX 20 35:32.580 21.029
18 7 FACUNDO LEANEZ TOYOTA ETIOS 20 35:32.960 21.409
19 116 ALEJANDRO TORRISI NISSAN MARCH 20 35:33.096 21.545
20 78 ROBERTO LUNA VW TREND 20 35:36.017 24.466
21 112 MATIAS SIGNORELLI FIAT ARGO 20 35:38.850 27.299
22 82 JUAN PABLO AQUILES TOYOTA ETIOS 20 35:43.157 31.606
23 181 DIEGO SEGOVIA FIESTA KINETIC 20 36:30.159 1:18.608
24 150 JUAN MARTIN ELUCHANS NISSAN MARCH 20 36:33.729 1:22.178
25 2 EMANUEL ABDALA FIESTA KINETIC 20 36:34.106 1:22.555
26 121 NAZARENO BEGUIRISTAIN TOYOTA ETIOS 20 36:34.746 1:23.195
27 3 GERONIMO NUNEZ TOYOTA ETIOS 19 34:00.142 1 Vuelta
28 22 MARCOS FERNANDEZ NISSAN MARCH 19 35:44.434 1 Vuelta
12 MAXIMILIANO BESTANI FIESTA KINETIC 14 26:55.794 6 Vueltas
37 GABRIEL SCORDIA FIAT ARGO 13 25:44.857 7 Vueltas
36 SANDRO ABDALA RENAULT CLIO 11 22:25.083 9 Vueltas
15 MIGUEL CIAURRO VW TREND 10 21:23.142 10 Vueltas
16 DIEGO LEANEZ TOYOTA ETIOS 5 14:01.774 15 Vueltas
154 FACUNDO ROTONDO FIESTA KINETIC 2 4:06.284 18 Vueltas
28 MATEO NUNEZ NISSAN MARCH
84 LUCAS YEROBI FIESTA KINETIC
98 ALEX CONCI FIESTA KINETIC

Auto Nro.8 (Perez) Recargado con 3 puestos por maniobra peligrosa al Auto nro. 10 (Borgiani)

Auto nro. 89 (Blotta) Apercibido por maniobra peligrosa al Auto nro. 55 (Guevara)

Descargas
Título Archivo Descarga
228-423-final-clase-2-1.xls
SERIES
PRIMERA SERIE C2
Puesto Nro Piloto Marca Vtas Tiempo Dif.
1 89 RENZO BLOTTA TOYOTA ETIOS 6 9:59.778
2 55 MARCELO GUEVARA NISSAN MARCH 6 10:01.565 1.787
3 14 IGNACIO PROCACITTO VW TREND 6 10:01.693 1.915
4 154 FACUNDO ROTONDO FIESTA KINETIC 6 10:02.028 2.250
5 37 GABRIEL SCORDIA FIAT ARGO 6 10:02.394 2.616
6 12 MAXIMILIANO BESTANI FIESTA KINETIC 6 10:02.400 2.622
7 84 LUCAS YEROBI FIESTA KINETIC 6 10:03.016 3.238
8 116 ALEJANDRO TORRISI NISSAN MARCH 6 10:05.674 5.896
9 10 ALEJO BORGIANI VW TREND 6 10:07.487 7.709
10 199 JUAN I. TORRES CHEVROLET CORSA 6 10:07.490 7.712
11 3 GERONIMO NUNEZ TOYOTA ETIOS 6 10:24.672 24.894
12 61 FACUNDO BUSTOS VW TREND 5 8:31.373 1 Vuelta
13 82 JUAN PABLO AQUILES TOYOTA ETIOS 5 8:32.139 1 Vuelta

Auto Nro. 12 (Bestani) Recargado con 3 puestos por maniobra peligrosa al Auto Nro. 3 (Nuñez)

Auto Nro. 199 (Torres) Recargado con 8 puestos por maniobra peligrosa al Aut Nro. 10 (Borgiani)

Descargas
Título Archivo Descarga
228-651-1ra-serie-clase-2.xls
SEGUNDA SERIE C2
Puesto Nro Piloto Marca Vtas Tiempo Dif.
1 2 EMANUEL ABDALA FIESTA KINETIC 6 10:29.161
2 86 FACUNDO DELLA MOTTA TOYOTA ETIOS 6 10:29.964 0.803
3 114 PABLO ORTEGA FIAT ARGO 6 10:30.151 0.990
4 4 LUCAS TEDESCHI TOYOTA ETIOS 6 10:30.449 1.288
5 113 CHRISTIAN BODRATO MIONETT TOYOTA ETIOS 6 10:32.009 2.848
6 28 MATEO NUNEZ NISSAN MARCH 6 10:33.822 4.661
7 36 SANDRO ABDALA RENAULT CLIO 6 10:34.159 4.998
8 79 MARCO VERONESI TOYOTA ETIOS 6 10:34.568 5.407
9 121 NAZARENO BEGUIRISTAIN TOYOTA ETIOS 6 10:35.443 6.282
10 30 VALDERREY ALEJANDRO TOYOTA ETIOS 6 10:43.904 14.743
11 150 JUAN MARTIN ELUCHANS NISSAN MARCH 4 7:39.767 2 Vueltas
112 MATIAS SIGNORELLI FIAT ARGO 1 1:32.466 5 Vueltas
Descargas
Título Archivo Descarga
228-998-2da-serie-clase-2.xls
TERCERA SERIE C2
Puesto Nro Piloto Marca Vtas Tiempo Dif.
1 22 MARCOS FERNANDEZ NISSAN MARCH 6 8:40.022
2 80 JUAN I. CANELA VW TREND 6 8:40.904 0.882
3 9 CHRISTIAN ABDALA TOYOTA ETIOS 6 8:41.478 1.456
4 21 FERNANDO GOMEZ FREDES TOYOTA ETIOS 6 8:41.920 1.898
5 35 SERGIO FERNANDEZ NISSAN MARCH 6 8:42.739 2.717
6 98 ALEX CONCI FIESTA KINETIC 6 8:46.615 6.593
7 16 DIEGO LEANEZ TOYOTA ETIOS 6 8:46.768 6.746
8 7 FACUNDO LEANEZ TOYOTA ETIOS 6 8:47.332 7.310
9 78 ROBERTO LUNA VW TREND 6 8:49.727 9.705
10 181 DIEGO SEGOVIA FIESTA KINETIC 6 9:22.259 42.237
11 8 SEBASTIAN PEREZ CHEVROLET ONIX 6 9:55.736 1:15.714
12 15 MIGUEL CIAURRO VW TREND 4 7:10.422 2 Vueltas
Descargas
Título Archivo Descarga
228-359-3ra-serie-clase-2.xls
CLASIFICACIONES
1° CLASIFICACIÓN C2
Puesto Nro Piloto Marca Vtas Tiempo Dif.
1 61 FACUNDO BUSTOS VW TREND 4 1:24.302
2 2 EMANUEL ABDALA FIESTA KINETIC 4 1:24.378 0.076
3 22 MARCOS FERNANDEZ NISSAN MARCH 3 1:24.445 0.143
4 89 RENZO BLOTTA TOYOTA ETIOS 4 1:24.487 0.185
5 79 MARCO VERONESI TOYOTA ETIOS 1 1:24.490 0.188
6 21 FERNANDO GOMEZ FREDES TOYOTA ETIOS 3 1:24.498 0.196
7 199 JUAN I. TORRES CHEVROLET CORSA 4 1:24.529 0.227
8 4 LUCAS TEDESCHI TOYOTA ETIOS 4 1:24.538 0.236
9 9 CHRISTIAN ABDALA TOYOTA ETIOS 3 1:24.539 0.237
10 3 GERONIMO NUNEZ TOYOTA ETIOS 4 1:24.615 0.313
11 35 SERGIO FERNANDEZ NISSAN MARCH 3 1:24.699 0.397
12 116 ALEJANDRO TORRISI NISSAN MARCH 3 1:24.712 0.410
13 114 PABLO ORTEGA FIAT ARGO 4 1:24.798 0.496
14 80 JUAN I. CANELA VW TREND 4 1:24.861 0.559
15 12 MAXIMILIANO BESTANI FIESTA KINETIC 4 1:24.931 0.629
16 28 MATEO NUNEZ NISSAN MARCH 4 1:24.938 0.636
17 15 MIGUEL CIAURRO VW TREND 4 1:24.963 0.661
18 55 MARCELO GUEVARA NISSAN MARCH 4 1:24.991 0.689
19 113 CHRISTIAN BODRATO MIONETT TOYOTA ETIOS 4 1:25.096 0.794
20 16 DIEGO LEANEZ TOYOTA ETIOS 4 1:25.136 0.834
21 112 MATIAS SIGNORELLI FIAT ARGO 4 1:25.256 0.954
22 10 ALEJO BORGIANI VW TREND 4 1:25.355 1.053
23 84 LUCAS YEROBI FIESTA KINETIC 3 1:25.425 1.123
24 36 SANDRO ABDALA RENAULT CLIO 4 1:25.476 1.174
25 7 FACUNDO LEANEZ TOYOTA ETIOS 4 1:25.562 1.260
26 37 GABRIEL SCORDIA FIAT ARGO 3 1:25.636 1.334
27 121 NAZARENO BEGUIRISTAIN TOYOTA ETIOS 2 1:25.660 1.358
28 98 ALEX CONCI FIESTA KINETIC 3 1:25.715 1.413
29 86 FACUNDO DELLA MOTTA TOYOTA ETIOS 3 1:25.715 1.413
30 82 JUAN PABLO AQUILES TOYOTA ETIOS 2 1:25.803 1.501
31 8 SEBASTIAN PEREZ CHEVROLET ONIX 5 1:25.890 1.588
32 150 JUAN MARTIN ELUCHANS NISSAN MARCH 3 1:26.363 2.061
33 78 ROBERTO LUNA VW TREND 3 1:26.373 2.071
34 154 FACUNDO ROTONDO FIESTA KINETIC 4 1:26.407 2.105
35 181 DIEGO SEGOVIA FIESTA KINETIC 4 1:27.262 2.960
36 30 VALDERREY ALEJANDRO TOYOTA ETIOS 3 1:27.422 3.120

Auto Nro. 14 (Procacitto) Excluido parcialmente por no respetar régimen de parque cerrado.

Descargas
Título Archivo Descarga
228-668-1ra-clasificacion-clase-2.xls
2° CLASIFICACIÓN C2
Puesto Nro Piloto Marca Vtas Tiempo Dif.
1 3 GERONIMO NUNEZ TOYOTA ETIOS 2 1:24.570
2 2 EMANUEL ABDALA FIESTA KINETIC 1 1:24.622 0.052
3 114 PABLO ORTEGA FIAT ARGO 3 1:24.663 0.093
4 86 FACUNDO DELLA MOTTA TOYOTA ETIOS 2 1:24.714 0.144
5 61 FACUNDO BUSTOS VW TREND 2 1:24.781 0.211
6 4 LUCAS TEDESCHI TOYOTA ETIOS 2 1:24.835 0.265
7 89 RENZO BLOTTA TOYOTA ETIOS 1 1:24.858 0.288
8 12 MAXIMILIANO BESTANI FIESTA KINETIC 2 1:25.032 0.462
9 10 ALEJO BORGIANI VW TREND 2 1:25.154 0.584
10 9 CHRISTIAN ABDALA TOYOTA ETIOS 3 1:25.157 0.587
11 55 MARCELO GUEVARA NISSAN MARCH 3 1:25.182 0.612
12 80 JUAN I. CANELA VW TREND 3 1:25.207 0.637
13 22 MARCOS FERNANDEZ NISSAN MARCH 3 1:25.273 0.703
14 199 JUAN I. TORRES CHEVROLET CORSA 2 1:25.276 0.706
15 35 SERGIO FERNANDEZ NISSAN MARCH 3 1:25.361 0.791
16 8 SEBASTIAN PEREZ CHEVROLET ONIX 2 1:25.383 0.813
17 116 ALEJANDRO TORRISI NISSAN MARCH 2 1:25.442 0.872
18 15 MIGUEL CIAURRO VW TREND 3 1:25.573 1.003
19 36 SANDRO ABDALA RENAULT CLIO 3 1:25.671 1.101
20 28 MATEO NUNEZ NISSAN MARCH 4 1:25.724 1.154
21 16 DIEGO LEANEZ TOYOTA ETIOS 4 1:25.773 1.203
22 82 JUAN PABLO AQUILES TOYOTA ETIOS 3 1:25.786 1.216
23 84 LUCAS YEROBI FIESTA KINETIC 3 1:25.874 1.304
24 113 CHRISTIAN BODRATO MIONETT TOYOTA ETIOS 3 1:25.998 1.428
25 150 JUAN MARTIN ELUCHANS NISSAN MARCH 4 1:26.145 1.575
26 37 GABRIEL SCORDIA FIAT ARGO 4 1:26.161 1.591
27 98 ALEX CONCI FIESTA KINETIC 4 1:26.245 1.675
28 7 FACUNDO LEANEZ TOYOTA ETIOS 5 1:26.273 1.703
29 112 MATIAS SIGNORELLI FIAT ARGO 3 1:26.301 1.731
30 154 FACUNDO ROTONDO FIESTA KINETIC 4 1:26.509 1.939
31 30 VALDERREY ALEJANDRO TOYOTA ETIOS 4 1:26.604 2.034
32 78 ROBERTO LUNA VW TREND 3 1:26.770 2.200
33 121 NAZARENO BEGUIRISTAIN TOYOTA ETIOS 3 1:27.373 2.803
34 79 MARCO VERONESI TOYOTA ETIOS 3 1:55.755 31.185
35 21 FERNANDO GOMEZ FREDES TOYOTA ETIOS 2 1:56.424 31.854

Sin Tiempo Auto Nro. 181 (segovia)

Auto Nro.113 (Brodato Mionetto) Retiro de la mejor vuelta por maniobra peligrosa al Auto Nro. 3 (Nuñez)

Auto Nro. 14 (Procacitto) Retiro de tiempos por no ajustarse al reglamento tecnico Art. 10.1 IyJ.

Descargas
Título Archivo Descarga
228-558-2da-clasificacion-clase-2.xls
GENERAL CLASIFICACIÓN C2
Puesto Nro Piloto Marca Vtas Tiempo Dif.
1 61 FACUNDO BUSTOS VW TREND 1:2
2 2 EMANUEL ABDALA FIESTA KINETIC 1:24.378 0.076
3 22 MARCOS FERNANDEZ NISSAN MARCH 1:24.445 0.143
4 89 RENZO BLOTTA TOYOTA ETIOS 1:24.487 0.185
5 79 MARCO VERONESI TOYOTA ETIOS 1:24.490 0.188
6 21 FERNANDO GOMEZ FREDES TOYOTA ETIOS 1:24.498 0.196
7 199 JUAN I. TORRES CHEVROLET CORSA 1:24.529 0.227
8 4 LUCAS TEDESCHI TOYOTA ETIOS 1:24.538 0.236
9 9 CHRISTIAN ABDALA TOYOTA ETIOS 1:24.539 0.237
10 3 GERONIMO NUNEZ TOYOTA ETIOS 1:24.570 0.268
11 114 PABLO ORTEGA FIAT ARGO 1:24.663 0.361
12 35 SERGIO FERNANDEZ NISSAN MARCH 1:24.699 0.397
13 116 ALEJANDRO TORRISI NISSAN MARCH 1:24.712 0.410
14 86 FACUNDO DELLA MOTTA TOYOTA ETIOS 1:24.714 0.412
15 80 JUAN I. CANELA VW TREND 1:24.861 0.559
16 12 MAXIMILIANO BESTANI FIESTA KINETIC 1:24.931 0.629
17 28 MATEO NUNEZ NISSAN MARCH 1:24.938 0.636
18 15 MIGUEL CIAURRO VW TREND 1:24.963 0.661
19 55 MARCELO GUEVARA NISSAN MARCH 1:24.991 0.689
20 113 CHRISTIAN BODRATO MIONETT TOYOTA ETIOS 1:25.096 0.794
21 16 DIEGO LEANEZ TOYOTA ETIOS 1:25.136 0.834
22 10 ALEJO BORGIANI VW TREND 1:25.154 0.852
23 112 MATIAS SIGNORELLI FIAT ARGO 1:25.256 0.954
24 8 SEBASTIAN PEREZ CHEVROLET ONIX 1:25.383 1.081
25 84 LUCAS YEROBI FIESTA KINETIC 1:25.425 1.123
26 36 SANDRO ABDALA RENAULT CLIO 1:25.476 1.174
27 7 FACUNDO LEANEZ TOYOTA ETIOS 1:25.562 1.260
28 37 GABRIEL SCORDIA FIAT ARGO 1:25.636 1.334
29 121 NAZARENO BEGUIRISTAIN TOYOTA ETIOS 1:25.660 1.358
30 98 ALEX CONCI FIESTA KINETIC 1:25.715 1.413
31 82 JUAN PABLO AQUILES TOYOTA ETIOS 1:25.786 1.484
32 150 JUAN MARTIN ELUCHANS NISSAN MARCH 1:26.145 1.843
33 78 ROBERTO LUNA VW TREND 1:26.373 2.071
34 154 FACUNDO ROTONDO FIESTA KINETIC 1:26.407 2.105
35 30 VALDERREY ALEJANDRO TOYOTA ETIOS 1:26.604 2.302
36 181 DIEGO SEGOVIA FIESTA KINETIC 1:27.262 2.960

Sin tiempo Auto Nro. 14 (Procacitto)

Descargas
ENTRENAMIENTOS
1° ENTRENAMIENTO C2
Puesto Nro Piloto Marca Vtas Tiempo Dif.
1 114 PABLO ORTEGA FIAT ARGO 12 1:25.064
2 4 LUCAS TEDESCHI TOYOTA ETIOS 13 1:25.076 0.012
3 15 MIGUEL CIAURRO VW TREND 11 1:25.143 0.079
4 113 CHRISTIAN BODRATO MIONETT TOYOTA ETIOS 12 1:25.269 0.205
5 199 JUAN I. TORRES CHEVROLET CORSA 13 1:25.297 0.233
6 82 JUAN PABLO AQUILES TOYOTA ETIOS 12 1:25.341 0.277
7 86 FACUNDO DELLA MOTTA TOYOTA ETIOS 10 1:25.386 0.322
8 80 JUAN I. CANELA VW TREND 13 1:25.410 0.346
9 112 MATIAS SIGNORELLI FIAT ARGO 11 1:25.437 0.373
10 3 GERONIMO NUNEZ TOYOTA ETIOS 13 1:25.484 0.420
11 89 RENZO BLOTTA TOYOTA ETIOS 11 1:25.524 0.460
12 10 ALEJO BORGIANI VW TREND 11 1:25.535 0.471
13 61 FACUNDO BUSTOS VW TREND 13 1:25.552 0.488
14 35 SERGIO FERNANDEZ NISSAN MARCH 14 1:25.633 0.569
15 55 MARCELO GUEVARA NISSAN MARCH 11 1:25.679 0.615
16 14 IGNACIO PROCACITTO VW TREND 10 1:25.737 0.673
17 8 SEBASTIAN PEREZ CHEVROLET ONIX 14 1:25.753 0.689
18 79 MARCO VERONESI TOYOTA ETIOS 13 1:25.796 0.732
19 2 EMANUEL ABDALA FIESTA KINETIC 7 1:25.806 0.742
20 84 LUCAS YEROBI FIESTA KINETIC 11 1:25.856 0.792
21 150 JUAN MARTIN ELUCHANS NISSAN MARCH 12 1:25.875 0.811
22 28 MATEO NUNEZ NISSAN MARCH 12 1:25.892 0.828
23 12 MAXIMILIANO BESTANI FIESTA KINETIC 11 1:25.905 0.841
24 9 CHRISTIAN ABDALA TOYOTA ETIOS 15 1:25.994 0.930
25 21 FERNANDO GOMEZ FREDES TOYOTA ETIOS 12 1:25.999 0.935
26 116 ALEJANDRO TORRISI NISSAN MARCH 13 1:26.113 1.049
27 98 ALEX CONCI FIESTA KINETIC 13 1:26.332 1.268
28 16 DIEGO LEANEZ TOYOTA ETIOS 12 1:26.348 1.284
29 7 FACUNDO LEANEZ TOYOTA ETIOS 14 1:26.364 1.300
30 36 SANDRO ABDALA RENAULT CLIO 13 1:26.367 1.303
31 22 MARCOS FERNANDEZ NISSAN MARCH 14 1:26.449 1.385
32 37 GABRIEL SCORDIA FIAT ARGO 12 1:26.546 1.482
33 154 FACUNDO ROTONDO FIESTA KINETIC 12 1:26.675 1.611
34 30 VALDERREY ALEJANDRO TOYOTA ETIOS 12 1:26.800 1.736
35 78 ROBERTO LUNA VW TREND 11 1:26.891 1.827
36 121 NAZARENO BEGUIRISTAIN TOYOTA ETIOS 14 1:27.079 2.015
37 181 DIEGO SEGOVIA FIESTA KINETIC 11 1:28.596 3.532
Descargas
Título Archivo Descarga
228-217-1er-entrenamiento-clase-2-1.xls
2° ENTRENAMIENTO C2
Puesto Nro Piloto Marca Vtas Tiempo Dif.
1 4 LUCAS TEDESCHI TOYOTA ETIOS 14 1:24.576
2 12 MAXIMILIANO BESTANI FIESTA KINETIC 12 1:24.633 0.057
3 114 PABLO ORTEGA FIAT ARGO 4 1:24.696 0.120
4 199 JUAN I. TORRES CHEVROLET CORSA 8 1:24.834 0.258
5 9 CHRISTIAN ABDALA TOYOTA ETIOS 11 1:24.842 0.266
6 89 RENZO BLOTTA TOYOTA ETIOS 11 1:25.008 0.432
7 84 LUCAS YEROBI FIESTA KINETIC 9 1:25.033 0.457
8 79 MARCO VERONESI TOYOTA ETIOS 9 1:25.043 0.467
9 22 MARCOS FERNANDEZ NISSAN MARCH 13 1:25.136 0.560
10 35 SERGIO FERNANDEZ NISSAN MARCH 14 1:25.143 0.567
11 14 IGNACIO PROCACITTO VW TREND 12 1:25.217 0.641
12 80 JUAN I. CANELA VW TREND 13 1:25.275 0.699
13 2 EMANUEL ABDALA FIESTA KINETIC 10 1:25.329 0.753
14 3 GERONIMO NUNEZ TOYOTA ETIOS 12 1:25.370 0.794
15 86 FACUNDO DELLA MOTTA TOYOTA ETIOS 10 1:25.450 0.874
16 150 JUAN MARTIN ELUCHANS NISSAN MARCH 7 1:25.464 0.888
17 8 SEBASTIAN PEREZ CHEVROLET ONIX 13 1:25.501 0.925
18 28 MATEO NUNEZ NISSAN MARCH 11 1:25.510 0.934
19 61 FACUNDO BUSTOS VW TREND 13 1:25.519 0.943
20 113 CHRISTIAN BODRATO MIONETT TOYOTA ETIOS 11 1:25.522 0.946
21 82 JUAN PABLO AQUILES TOYOTA ETIOS 13 1:25.575 0.999
22 36 SANDRO ABDALA RENAULT CLIO 8 1:25.609 1.033
23 37 GABRIEL SCORDIA FIAT ARGO 11 1:25.717 1.141
24 121 NAZARENO BEGUIRISTAIN TOYOTA ETIOS 11 1:25.804 1.228
25 78 ROBERTO LUNA VW TREND 12 1:25.854 1.278
26 15 MIGUEL CIAURRO VW TREND 12 1:25.869 1.293
27 55 MARCELO GUEVARA NISSAN MARCH 9 1:25.900 1.324
28 112 MATIAS SIGNORELLI FIAT ARGO 11 1:25.907 1.331
29 16 DIEGO LEANEZ TOYOTA ETIOS 11 1:25.973 1.397
30 116 ALEJANDRO TORRISI NISSAN MARCH 12 1:26.010 1.434
31 21 FERNANDO GOMEZ FREDES TOYOTA ETIOS 10 1:26.197 1.621
32 10 ALEJO BORGIANI VW TREND 5 1:26.271 1.695
33 7 FACUNDO LEANEZ TOYOTA ETIOS 10 1:26.413 1.837
34 30 VALDERREY ALEJANDRO TOYOTA ETIOS 10 1:26.429 1.853
35 98 ALEX CONCI FIESTA KINETIC 10 1:26.489 1.913
36 154 FACUNDO ROTONDO FIESTA KINETIC 11 1:26.907 2.331
37 181 DIEGO SEGOVIA FIESTA KINETIC 11 1:27.890 3.314
Descargas
Título Archivo Descarga
228-970-2do-entrenamiento-clase-2.xls
GENERAL ENTRENAMIENTO C2
Puesto Nro Piloto Marca Vtas Tiempo Dif.
1 4 LUCAS TEDESCHI TOYOTA ETIOS 1:2
2 12 MAXIMILIANO BESTANI FIESTA KINETIC 1:2 0.057
3 114 PABLO ORTEGA FIAT ARGO 1:2 0.120
4 199 JUAN I. TORRES CHEVROLET CORSA 1:2 0.258
5 9 CHRISTIAN ABDALA TOYOTA ETIOS 1:2 0.266
6 89 RENZO BLOTTA TOYOTA ETIOS 1:2 0.432
7 84 LUCAS YEROBI FIESTA KINETIC 1:2 0.457
8 79 MARCO VERONESI TOYOTA ETIOS 1:2 0.467
9 22 MARCOS FERNANDEZ NISSAN MARCH 1:2 0.560
10 15 MIGUEL CIAURRO VW TREND 1:2 0.567
11 35 SERGIO FERNANDEZ NISSAN MARCH 1:2 0.567
12 14 IGNACIO PROCACITTO VW TREND 1:2 0.641
13 113 CHRISTIAN BODRATO MIONETT TOYOTA ETIOS 1:2 0.693
14 80 JUAN I. CANELA VW TREND 1:2 0.699
15 2 EMANUEL ABDALA FIESTA KINETIC 1:2 0.753
16 82 JUAN PABLO AQUILES TOYOTA ETIOS 1:2 0.765
17 3 GERONIMO NUNEZ TOYOTA ETIOS 1:2 0.794
18 86 FACUNDO DELLA MOTTA TOYOTA ETIOS 1:2 0.810
19 112 MATIAS SIGNORELLI FIAT ARGO 1:2 0.861
20 150 JUAN MARTIN ELUCHANS NISSAN MARCH 1:2 0.888
21 8 SEBASTIAN PEREZ CHEVROLET ONIX 1:2 0.925
22 28 MATEO NUNEZ NISSAN MARCH 1:2 0.934
23 61 FACUNDO BUSTOS VW TREND 1:2 0.943
24 10 ALEJO BORGIANI VW TREND 1:2 0.959
25 36 SANDRO ABDALA RENAULT CLIO 1:2 1.033
26 55 MARCELO GUEVARA NISSAN MARCH 1:2 1.103
27 37 GABRIEL SCORDIA FIAT ARGO 1:2 1.141
28 121 NAZARENO BEGUIRISTAIN TOYOTA ETIOS 1:2 1.228
29 78 ROBERTO LUNA VW TREND 1:2 1.278
30 16 DIEGO LEANEZ TOYOTA ETIOS 1:2 1.397
31 21 FERNANDO GOMEZ FREDES TOYOTA ETIOS 1:2 1.423
32 116 ALEJANDRO TORRISI NISSAN MARCH 1:2 1.434
33 98 ALEX CONCI FIESTA KINETIC 1:2 1.756
34 7 FACUNDO LEANEZ TOYOTA ETIOS 1:2 1.788
35 30 VALDERREY ALEJANDRO TOYOTA ETIOS 1:2 1.853
36 154 FACUNDO ROTONDO FIESTA KINETIC 1:2 2.099
37 181 DIEGO SEGOVIA FIESTA KINETIC 1:2 3.314
Descargas